User: anonymous   Login
Location: Brede
(50.9167°N, 0.6000°E)
Time: 00:32:05
(UTC+00:00)
Language:

Cosmos 1975 Rocket - Orbit

View from above orbital plane
View from above orbital plane
View from above satellite
View from above satellite

Ground track
Ground track

The orbit data is extracted from the following two-line orbital elements,

1 19574U 88093B   20293.47868493  .00000058  00000-0  41024-5 0  9998
2 19574  82.5303  84.0704 0022853  55.4526   0.8011 14.83340328730342
Epoch (UTC): 19 October 2020 11:29:18
Eccentricity: 0.0022853
inclination: 82.5303°
perigee height: 603 km
apogee height: 635 km
right ascension of ascending node: 84.0704°
argument of perigee: 55.4526°
revolutions per day: 14.83340328
mean anomaly at epoch: 0.8011°
orbit number at epoch: 73034

The dashed part of the orbit path shows where the satellite is in the earth's shadow,  

DLR